| time (UTC) | temp F | wind direction | speed MPH | gust MPH | rain 1hr in | rain 24hr in | rain mn in | humidity % | barometer mb |
| 20260505212833 | 53 | 225 | 5.0 | 12.0 | 0.16 | 0.24 | 0.21 | 90 | 1008.3 |
| 20260505212317 | 54 | 259 | 5.0 | 16.0 | 0.13 | 0.21 | 0.18 | 90 | 1008.3 |
| 20260505211854 | 54 | 281 | 7.0 | 16.0 | 0.12 | 0.20 | 0.17 | 90 | 1008.3 |
| 20260505211335 | 54 | 264 | 8.0 | 14.0 | 0.09 | 0.17 | 0.14 | 89 | 1008.1 |
| 20260505210827 | 55 | 244 | 6.0 | 14.0 | 0.08 | 0.16 | 0.13 | 89 | 1008.1 |
| 20260505210349 | 55 | 283 | 5.0 | 12.0 | 0.06 | 0.14 | 0.11 | 89 | 1008.0 |
| 20260505205823 | 55 | 242 | 5.0 | 12.0 | 0.05 | 0.13 | 0.10 | 88 | 1007.9 |
| 20260505205326 | 55 | 257 | 6.0 | 10.0 | 0.04 | 0.12 | 0.09 | 87 | 1007.8 |
| 20260505204841 | 55 | 247 | 3.0 | 14.0 | 0.03 | 0.11 | 0.08 | 87 | 1007.7 |
| 20260505204317 | 56 | 254 | 3.0 | 14.0 | 0.02 | 0.10 | 0.07 | 86 | 1007.7 |
| 20260505203816 | 56 | 248 | 5.0 | 11.0 | 0.01 | 0.09 | 0.06 | 85 | 1007.7 |
| 20260505203339 | 56 | 238 | 6.0 | 10.0 | 0.01 | 0.09 | 0.06 | 84 | 1007.6 |
| 20260505202831 | 57 | 241 | 3.0 | 11.0 | 0.00 | 0.08 | 0.05 | 83 | 1007.5 |
| 20260505202334 | 57 | 283 | 5.0 | 14.0 | 0.00 | 0.08 | 0.05 | 82 | 1007.4 |
| 20260505201846 | 57 | 246 | 7.0 | 14.0 | 0.00 | 0.08 | 0.05 | 80 | 1007.5 |
| 20260505201331 | 57 | 261 | 4.0 | 10.0 | 0.00 | 0.08 | 0.05 | 80 | 1007.3 |
| 20260505200818 | 57 | 234 | 4.0 | 11.0 | 0.00 | 0.08 | 0.05 | 80 | 1007.1 |
| 20260505200322 | 58 | 238 | 4.0 | 11.0 | 0.00 | 0.08 | 0.05 | 81 | 1006.9 |
| 20260505195838 | 58 | 236 | 4.0 | 11.0 | 0.00 | 0.08 | 0.05 | 80 | 1007.1 |
| 20260505195339 | 58 | 244 | 4.0 | 14.0 | 0.00 | 0.08 | 0.05 | 80 | 1007.3 |
| 20260505194855 | 58 | 247 | 4.0 | 14.0 | 0.00 | 0.08 | 0.05 | 80 | 1007.3 |
| 20260505194317 | 58 | 244 | 4.0 | 11.0 | 0.00 | 0.08 | 0.05 | 80 | 1007.4 |
| 20260505193833 | 58 | 281 | 6.0 | 13.0 | 0.00 | 0.08 | 0.05 | 80 | 1007.5 |
| 20260505193317 | 58 | 229 | 6.0 | 15.0 | 0.00 | 0.08 | 0.05 | 80 | 1007.4 |
| 20260505192816 | 58 | 237 | 7.0 | 15.0 | 0.00 | 0.08 | 0.05 | 81 | 1007.4 |
| 20260505192337 | 58 | 216 | 7.0 | 11.0 | 0.00 | 0.08 | 0.05 | 81 | 1007.2 |
| 20260505191851 | 58 | 221 | 5.0 | 10.0 | 0.00 | 0.08 | 0.05 | 81 | 1007.3 |
| 20260505191316 | 58 | 266 | 4.0 | 9.0 | 0.00 | 0.08 | 0.05 | 81 | 1007.2 |
| 20260505190830 | 58 | 270 | 5.0 | 13.0 | 0.00 | 0.08 | 0.05 | 81 | 1007.4 |
| 20260505190314 | 58 | 254 | 7.0 | 19.0 | 0.00 | 0.08 | 0.05 | 80 | 1007.3 |
| 20260505185832 | 58 | 282 | 9.0 | 19.0 | 0.00 | 0.08 | 0.05 | 80 | 1007.4 |
| 20260505185359 | 58 | 263 | 7.0 | 18.0 | 0.00 | 0.08 | 0.05 | 80 | 1007.3 |
| 20260505184831 | 58 | 228 | 8.0 | 14.0 | 0.00 | 0.08 | 0.05 | 80 | 1007.0 |
| 20260505184337 | 58 | 292 | 6.0 | 15.0 | 0.00 | 0.08 | 0.05 | 79 | 1007.1 |
| 20260505183815 | 59 | 273 | 8.0 | 17.0 | 0.00 | 0.08 | 0.05 | 78 | 1007.4 |
| 20260505183337 | 59 | 237 | 10.0 | 17.0 | 0.00 | 0.08 | 0.05 | 77 | 1007.5 |
| 20260505182856 | 60 | 252 | 9.0 | 15.0 | 0.00 | 0.08 | 0.05 | 76 | 1007.5 |
| 20260505182336 | 60 | 279 | 8.0 | 15.0 | 0.00 | 0.08 | 0.05 | 76 | 1007.4 |
| 20260505181831 | 60 | 293 | 7.0 | 14.0 | 0.00 | 0.08 | 0.05 | 76 | 1007.1 |
| 20260505181335 | 60 | 239 | 8.0 | 17.0 | 0.00 | 0.08 | 0.05 | 75 | 1007.0 |
| 20260505180818 | 61 | 258 | 11.0 | 17.0 | 0.00 | 0.08 | 0.05 | 74 | 1007.1 |
| 20260505180318 | 61 | 232 | 10.0 | 20.0 | 0.00 | 0.08 | 0.05 | 74 | 1007.0 |
| 20260505175835 | 61 | 263 | 11.0 | 24.0 | 0.00 | 0.08 | 0.05 | 73 | 1006.8 |
| 20260505175337 | 61 | 265 | 12.0 | 24.0 | 0.00 | 0.08 | 0.05 | 72 | 1006.8 |
| 20260505174832 | 61 | 294 | 9.0 | 20.0 | 0.00 | 0.08 | 0.05 | 74 | 1006.8 |
| 20260505174314 | 60 | 265 | 8.0 | 14.0 | 0.00 | 0.08 | 0.05 | 75 | 1006.6 |
| 20260505173829 | 59 | 251 | 5.0 | 12.0 | 0.00 | 0.08 | 0.05 | 76 | 1006.4 |
| 20260505173335 | 59 | 230 | 5.0 | 13.0 | 0.00 | 0.08 | 0.05 | 77 | 1006.4 |
| 20260505172814 | 58 | 272 | 5.0 | 13.0 | 0.00 | 0.08 | 0.05 | 77 | 1006.4 |
| 20260505172319 | 58 | 257 | 4.0 | 11.0 | 0.00 | 0.08 | 0.05 | 77 | 1006.5 |
| 20260505171836 | 58 | 227 | 4.0 | 10.0 | 0.00 | 0.08 | 0.05 | 77 | 1006.5 |
| 20260505171319 | 58 | 236 | 6.0 | 11.0 | 0.00 | 0.08 | 0.05 | 76 | 1006.6 |
| 20260505170831 | 58 | 199 | 4.0 | 15.0 | 0.00 | 0.08 | 0.05 | 76 | 1006.6 |
| 20260505170336 | 58 | 247 | 6.0 | 15.0 | 0.00 | 0.08 | 0.05 | 74 | 1006.6 |
| 20260505165829 | 59 | 256 | 6.0 | 14.0 | 0.00 | 0.08 | 0.05 | 74 | 1006.6 |
| 20260505165334 | 59 | 287 | 7.0 | 16.0 | 0.00 | 0.08 | 0.05 | 73 | 1006.4 |
| 20260505164821 | 60 | 292 | 8.0 | 15.0 | 0.00 | 0.08 | 0.05 | 72 | 1006.4 |
| 20260505164324 | 61 | 238 | 9.0 | 17.0 | 0.00 | 0.08 | 0.05 | 69 | 1006.2 |
| 20260505163820 | 64 | 242 | 9.0 | 19.0 | 0.00 | 0.08 | 0.05 | 65 | 1005.9 |
| 20260505163323 | 65 | 250 | 11.0 | 19.0 | 0.00 | 0.08 | 0.05 | 66 | 1005.7 |
| 20260505162830 | 65 | 280 | 7.0 | 14.0 | 0.00 | 0.08 | 0.05 | 68 | 1005.6 |
| 20260505162332 | 65 | 238 | 7.0 | 13.0 | 0.00 | 0.08 | 0.05 | 68 | 1005.4 |
| 20260505161826 | 64 | 267 | 7.0 | 13.0 | 0.00 | 0.08 | 0.05 | 68 | 1005.2 |
| 20260505161328 | 63 | 237 | 4.0 | 9.0 | 0.00 | 0.08 | 0.05 | 72 | 1004.9 |
| 20260505160822 | 61 | 240 | 2.0 | 11.0 | 0.00 | 0.08 | 0.05 | 73 | 1005.1 |
| 20260505160327 | 60 | 245 | 4.0 | 13.0 | 0.00 | 0.08 | 0.05 | 74 | 1005.4 |
| 20260505153325 | 66 | 238 | 6.0 | 21.0 | 0.00 | 0.08 | 0.05 | 63 | 1005.6 |
| 20260505152820 | 66 | 246 | 11.0 | 21.0 | 0.00 | 0.08 | 0.05 | 62 | 1005.5 |
| 20260505152322 | 66 | 232 | 7.0 | 20.0 | 0.00 | 0.08 | 0.05 | 63 | 1005.5 |
| 20260505151838 | 66 | 260 | 9.0 | 20.0 | 0.00 | 0.08 | 0.05 | 63 | 1005.6 |
| 20260505151319 | 66 | 229 | 7.0 | 19.0 | 0.00 | 0.08 | 0.05 | 63 | 1005.5 |
| 20260505150830 | 66 | 251 | 10.0 | 27.0 | 0.00 | 0.08 | 0.05 | 62 | 1005.5 |
| 20260505150328 | 66 | 203 | 16.0 | 27.0 | 0.00 | 0.08 | 0.05 | 61 | 1005.3 |
| 20260505140342 | 67 | 197 | 5.0 | 13.0 | 0.00 | 0.08 | 0.05 | 60 | 1004.1 |
| 20260505124833 | 67 | 238 | 8.0 | 20.0 | 0.00 | 0.08 | 0.05 | 61 | 1003.8 |
| 20260505124336 | 67 | 244 | 5.0 | 15.0 | 0.00 | 0.08 | 0.05 | 62 | 1003.7 |
| 20260505123829 | 67 | 235 | 5.0 | 16.0 | 0.00 | 0.08 | 0.05 | 62 | 1003.6 |
| 20260505123332 | 66 | 235 | 4.0 | 19.0 | 0.00 | 0.08 | 0.05 | 62 | 1003.7 |
| 20260505122820 | 66 | 186 | 5.0 | 18.0 | 0.00 | 0.08 | 0.05 | 63 | 1003.5 |
| 20260505122342 | 66 | 220 | 7.0 | 12.0 | 0.00 | 0.08 | 0.05 | 62 | 1003.5 |
| 20260505121902 | 66 | 240 | 4.0 | 18.0 | 0.00 | 0.08 | 0.05 | 62 | 1003.4 |
| 20260505121317 | 66 | 202 | 5.0 | 13.0 | 0.00 | 0.08 | 0.05 | 63 | 1003.3 |
| 20260505120835 | 66 | 144 | 5.0 | 13.0 | 0.00 | 0.08 | 0.05 | 63 | 1003.4 |
| 20260505120335 | 66 | 186 | 6.0 | 14.0 | 0.00 | 0.08 | 0.05 | 63 | 1003.4 |
| 20260505115828 | 66 | 172 | 5.0 | 18.0 | 0.00 | 0.08 | 0.05 | 63 | 1003.4 |
| 20260505115332 | 66 | 183 | 7.0 | 19.0 | 0.00 | 0.08 | 0.05 | 63 | 1003.3 |
| 20260505114823 | 66 | 151 | 7.0 | 19.0 | 0.00 | 0.08 | 0.05 | 62 | 1003.3 |
| 20260505114328 | 66 | 205 | 5.0 | 24.0 | 0.00 | 0.08 | 0.05 | 62 | 1003.1 |
| 20260505113837 | 66 | 205 | 8.0 | 24.0 | 0.00 | 0.08 | 0.05 | 62 | 1003.1 |
| 20260505113358 | 66 | 188 | 7.0 | 18.0 | 0.00 | 0.08 | 0.05 | 63 | 1002.9 |
| 20260505112830 | 66 | 207 | 8.0 | 17.0 | 0.00 | 0.08 | 0.05 | 63 | 1002.9 |
| 20260505112315 | 66 | 176 | 8.0 | 17.0 | 0.00 | 0.08 | 0.05 | 63 | 1002.7 |
| 20260505111832 | 66 | 163 | 6.0 | 21.0 | 0.00 | 0.08 | 0.05 | 63 | 1002.7 |
| 20260505111336 | 66 | 292 | 5.0 | 27.0 | 0.00 | 0.08 | 0.05 | 63 | 1002.7 |
| 20260505110829 | 66 | 194 | 11.0 | 27.0 | 0.00 | 0.08 | 0.05 | 62 | 1002.5 |
| 20260505110333 | 65 | 195 | 5.0 | 22.0 | 0.00 | 0.08 | 0.05 | 63 | 1002.5 |
| 20260505101847 | 65 | 200 | 7.0 | 14.0 | 0.00 | 0.08 | 0.05 | 63 | 1001.9 |
| 20260505101350 | 65 | 233 | 6.0 | 17.0 | 0.00 | 0.08 | 0.05 | 63 | 1002.0 |
| 20260505100819 | 65 | 165 | 7.0 | 18.0 | 0.00 | 0.08 | 0.05 | 63 | 1001.9 |
| 20260505100323 | 65 | 200 | 7.0 | 18.0 | 0.00 | 0.08 | 0.05 | 63 | 1001.8 |
| 20260505095820 | 65 | 180 | 6.0 | 20.0 | 0.01 | 0.08 | 0.05 | 64 | 1001.6 |
| 20260505095320 | 65 | 176 | 7.0 | 20.0 | 0.01 | 0.08 | 0.05 | 63 | 1001.6 |
| 20260505094832 | 65 | 184 | 6.0 | 18.0 | 0.01 | 0.08 | 0.05 | 64 | 1001.8 |
| 20260505094337 | 65 | 167 | 8.0 | 26.0 | 0.01 | 0.08 | 0.05 | 63 | 1001.6 |
| 20260505093830 | 65 | 190 | 10.0 | 26.0 | 0.01 | 0.08 | 0.05 | 63 | 1001.7 |
| 20260505093334 | 65 | 195 | 7.0 | 17.0 | 0.01 | 0.08 | 0.05 | 63 | 1001.7 |
| 20260505092848 | 66 | 132 | 6.0 | 18.0 | 0.01 | 0.08 | 0.05 | 63 | 1001.7 |
| 20260505092351 | 66 | 130 | 8.0 | 21.0 | 0.01 | 0.08 | 0.05 | 63 | 1001.6 |
| 20260505091819 | 66 | 157 | 5.0 | 22.0 | 0.01 | 0.08 | 0.05 | 63 | 1001.8 |
| 20260505091324 | 66 | 186 | 8.0 | 22.0 | 0.01 | 0.08 | 0.05 | 63 | 1001.8 |
| 20260505090825 | 66 | 159 | 7.0 | 22.0 | 0.01 | 0.08 | 0.05 | 63 | 1001.7 |
| 20260505090328 | 66 | 150 | 5.0 | 24.0 | 0.01 | 0.08 | 0.05 | 63 | 1001.7 |
| 20260505085821 | 66 | 217 | 12.0 | 24.0 | 0.00 | 0.07 | 0.04 | 63 | 1001.7 |
| 20260505085322 | 65 | 163 | 6.0 | 18.0 | 0.00 | 0.07 | 0.04 | 64 | 1001.6 |
| 20260505084816 | 66 | 182 | 7.0 | 17.0 | 0.00 | 0.07 | 0.04 | 64 | 1001.6 |
| 20260505084339 | 66 | 174 | 6.0 | 19.0 | 0.00 | 0.07 | 0.04 | 64 | 1001.5 |
| 20260505083818 | 66 | 161 | 10.0 | 20.0 | 0.00 | 0.07 | 0.04 | 64 | 1001.5 |
| 20260505083320 | 66 | 128 | 6.0 | 22.0 | 0.00 | 0.07 | 0.04 | 64 | 1001.4 |
| 20260505082839 | 66 | 151 | 7.0 | 22.0 | 0.00 | 0.07 | 0.04 | 64 | 1001.3 |
| 20260505082358 | 66 | 129 | 6.0 | 20.0 | 0.00 | 0.07 | 0.04 | 64 | 1001.4 |
| 20260505081831 | 66 | 155 | 8.0 | 18.0 | 0.00 | 0.07 | 0.04 | 64 | 1001.4 |
| 20260505081316 | 66 | 159 | 7.0 | 18.0 | 0.00 | 0.07 | 0.04 | 64 | 1001.4 |
| 20260505080834 | 66 | 173 | 6.0 | 16.0 | 0.00 | 0.07 | 0.04 | 64 | 1001.5 |
| 20260505080337 | 66 | 181 | 6.0 | 21.0 | 0.00 | 0.07 | 0.04 | 65 | 1001.4 |
| 20260505075831 | 65 | 182 | 6.0 | 21.0 | 0.00 | 0.07 | 0.04 | 65 | 1001.5 |
| 20260505075315 | 65 | 178 | 5.0 | 20.0 | 0.00 | 0.07 | 0.04 | 65 | 1001.5 |
| 20260505074814 | 65 | 234 | 8.0 | 15.0 | 0.01 | 0.07 | 0.04 | 66 | 1001.4 |
| 20260505074319 | 65 | 153 | 7.0 | 17.0 | 0.01 | 0.07 | 0.04 | 66 | 1001.4 |
| 20260505073833 | 65 | 189 | 8.0 | 18.0 | 0.01 | 0.07 | 0.04 | 67 | 1001.5 |
| 20260505073315 | 64 | 169 | 8.0 | 17.0 | 0.01 | 0.07 | 0.04 | 68 | 1001.5 |
| 20260505072831 | 64 | 171 | 5.0 | 18.0 | 0.01 | 0.07 | 0.04 | 69 | 1001.3 |
| 20260505072314 | 64 | 199 | 6.0 | 22.0 | 0.01 | 0.07 | 0.04 | 70 | 1001.4 |
| 20260505071833 | 63 | 201 | 7.0 | 22.0 | 0.01 | 0.07 | 0.04 | 72 | 1001.4 |
| 20260505071316 | 62 | 178 | 5.0 | 15.0 | 0.01 | 0.07 | 0.04 | 75 | 1001.5 |
| 20260505070834 | 62 | 169 | 3.0 | 9.0 | 0.01 | 0.07 | 0.04 | 76 | 1001.6 |
| 20260505070338 | 63 | 195 | 3.0 | 9.0 | 0.01 | 0.07 | 0.04 | 75 | 1001.7 |
| 20260505065830 | 63 | 225 | 4.0 | 16.0 | 0.01 | 0.07 | 0.04 | 73 | 1001.9 |
| 20260505065353 | 64 | 167 | 6.0 | 23.0 | 0.01 | 0.07 | 0.04 | 70 | 1002.2 |
| 20260505064825 | 66 | 219 | 7.0 | 23.0 | 0.00 | 0.06 | 0.03 | 67 | 1002.3 |
| 20260505064349 | 66 | 241 | 5.0 | 19.0 | 0.00 | 0.06 | 0.03 | 62 | 1002.3 |
| 20260505063819 | 66 | 166 | 8.0 | 19.0 | 0.00 | 0.06 | 0.03 | 62 | 1002.1 |
| 20260505063344 | 66 | 211 | 7.0 | 18.0 | 0.00 | 0.06 | 0.03 | 63 | 1002.0 |
| 20260505062821 | 66 | 130 | 5.0 | 18.0 | 0.00 | 0.06 | 0.03 | 64 | 1002.3 |
| 20260505062314 | 66 | 196 | 7.0 | 20.0 | 0.00 | 0.06 | 0.03 | 63 | 1002.2 |
| 20260505061833 | 66 | 132 | 10.0 | 20.0 | 0.00 | 0.06 | 0.03 | 63 | 1002.1 |
| 20260505061355 | 65 | 263 | 8.0 | 22.0 | 0.00 | 0.06 | 0.03 | 64 | 1002.0 |
| 20260505060848 | 65 | 186 | 9.0 | 22.0 | 0.01 | 0.06 | 0.03 | 64 | 1001.8 |
| 20260505060331 | 65 | 147 | 9.0 | 20.0 | 0.01 | 0.06 | 0.03 | 65 | 1002.0 |
| 20260505055822 | 65 | 173 | 6.0 | 17.0 | 0.01 | 0.06 | 0.03 | 66 | 1002.0 |
| 20260505055321 | 64 | 167 | 6.0 | 24.0 | 0.01 | 0.06 | 0.03 | 68 | 1002.0 |
| 20260505054840 | 64 | 167 | 8.0 | 24.0 | 0.01 | 0.06 | 0.03 | 68 | 1002.0 |
| 20260505054337 | 63 | 169 | 7.0 | 21.0 | 0.01 | 0.06 | 0.03 | 71 | 1002.2 |
| 20260505053829 | 62 | 146 | 8.0 | 23.0 | 0.01 | 0.06 | 0.03 | 74 | 1002.2 |
| 20260505053333 | 60 | 156 | 7.0 | 23.0 | 0.01 | 0.06 | 0.03 | 79 | 1002.4 |
| 20260505052846 | 59 | 173 | 2.0 | 6.0 | 0.01 | 0.06 | 0.03 | 83 | 1002.5 |
| 20260505052347 | 59 | 184 | 0.0 | 4.0 | 0.01 | 0.06 | 0.03 | 84 | 1002.8 |
| 20260505051821 | 59 | 184 | 2.0 | 4.0 | 0.02 | 0.06 | 0.03 | 85 | 1002.8 |
| 20260505051321 | 58 | 209 | 1.0 | 5.0 | 0.03 | 0.06 | 0.03 | 86 | 1003.0 |
| 20260505050818 | 58 | 186 | 2.0 | 7.0 | 0.02 | 0.05 | 0.02 | 87 | 1003.1 |
| 20260505050338 | 58 | 215 | 3.0 | 7.0 | 0.02 | 0.05 | 0.02 | 87 | 1003.1 |
| 20260505041316 | 62 | 245 | 6.0 | 15.0 | 0.00 | 0.03 | 0.00 | 67 | 1004.7 |
| 20260505040834 | 63 | 247 | 9.0 | 16.0 | 0.00 | 0.03 | 0.00 | 64 | 1004.5 |
| 20260505040334 | 64 | 249 | 8.0 | 18.0 | 0.00 | 0.03 | 0.00 | 63 | 1004.3 |
| 20260505035814 | 65 | 237 | 10.0 | 18.0 | 0.00 | 0.03 | 0.03 | 62 | 1004.0 |
| 20260505035318 | 66 | 273 | 8.0 | 18.0 | 0.00 | 0.03 | 0.03 | 62 | 1003.9 |
| 20260505034815 | 66 | 260 | 6.0 | 19.0 | 0.00 | 0.03 | 0.03 | 61 | 1003.8 |
| 20260505034338 | 66 | 192 | 7.0 | 19.0 | 0.00 | 0.03 | 0.03 | 60 | 1003.4 |
| 20260505033831 | 66 | 149 | 3.0 | 13.0 | 0.00 | 0.03 | 0.03 | 61 | 1003.3 |
| 20260505033313 | 66 | 187 | 8.0 | 17.0 | 0.00 | 0.03 | 0.03 | 60 | 1003.1 |
| 20260505032833 | 66 | 262 | 8.0 | 17.0 | 0.00 | 0.03 | 0.03 | 60 | 1003.0 |
| 20260505032317 | 66 | 186 | 6.0 | 18.0 | 0.00 | 0.03 | 0.03 | 61 | 1002.6 |
| 20260505031831 | 66 | 186 | 8.0 | 19.0 | 0.00 | 0.03 | 0.03 | 61 | 1002.8 |
| 20260505031315 | 66 | 184 | 6.0 | 19.0 | 0.00 | 0.03 | 0.03 | 61 | 1002.8 |
| 20260505030828 | 66 | 128 | 7.0 | 21.0 | 0.00 | 0.03 | 0.03 | 62 | 1002.6 |
| 20260505030332 | 66 | 163 | 6.0 | 17.0 | 0.00 | 0.03 | 0.03 | 63 | 1002.7 |
| 20260505025818 | 65 | 131 | 5.0 | 14.0 | 0.00 | 0.03 | 0.03 | 63 | 1002.8 |
| 20260505025319 | 65 | 172 | 5.0 | 17.0 | 0.00 | 0.03 | 0.03 | 64 | 1002.8 |
| 20260505024839 | 65 | 164 | 5.0 | 17.0 | 0.00 | 0.03 | 0.03 | 64 | 1002.8 |
| 20260505024337 | 65 | 145 | 5.0 | 11.0 | 0.00 | 0.03 | 0.03 | 65 | 1002.9 |
| 20260505023851 | 65 | 188 | 4.0 | 12.0 | 0.00 | 0.03 | 0.03 | 65 | 1002.8 |
| 20260505023333 | 65 | 124 | 5.0 | 12.0 | 0.01 | 0.03 | 0.03 | 66 | 1002.9 |
| 20260505022823 | 65 | 146 | 5.0 | 11.0 | 0.01 | 0.03 | 0.03 | 66 | 1002.9 |
| 20260505022326 | 64 | 154 | 4.0 | 11.0 | 0.01 | 0.03 | 0.03 | 67 | 1003.0 |
| 20260505021813 | 64 | 213 | 5.0 | 11.0 | 0.01 | 0.03 | 0.03 | 68 | 1003.1 |
| 20260505021319 | 64 | 160 | 6.0 | 12.0 | 0.01 | 0.03 | 0.03 | 68 | 1003.0 |
| 20260505020835 | 64 | 144 | 4.0 | 10.0 | 0.01 | 0.03 | 0.03 | 69 | 1003.0 |
| 20260505020338 | 63 | 144 | 5.0 | 10.0 | 0.01 | 0.03 | 0.03 | 71 | 1002.9 |
| 20260505015822 | 63 | 150 | 4.0 | 10.0 | 0.01 | 0.03 | 0.03 | 72 | 1003.0 |
| 20260505015325 | 62 | 180 | 3.0 | 9.0 | 0.01 | 0.03 | 0.03 | 74 | 1003.1 |
| 20260505014835 | 62 | 149 | 5.0 | 9.0 | 0.01 | 0.03 | 0.03 | 75 | 1002.9 |
| 20260505014339 | 62 | 139 | 5.0 | 7.0 | 0.01 | 0.03 | 0.03 | 76 | 1002.9 |
| 20260505013824 | 62 | 151 | 3.0 | 5.0 | 0.02 | 0.03 | 0.03 | 75 | 1003.0 |
| 20260505013326 | 63 | 140 | 3.0 | 7.0 | 0.02 | 0.02 | 0.02 | 73 | 1003.2 |
| 20260505012815 | 64 | 173 | 4.0 | 12.0 | 0.02 | 0.02 | 0.02 | 71 | 1003.1 |
| 20260505012319 | 64 | 171 | 5.0 | 14.0 | 0.02 | 0.02 | 0.02 | 69 | 1003.1 |
| 20260505011832 | 64 | 196 | 6.0 | 14.0 | 0.02 | 0.02 | 0.02 | 67 | 1002.9 |
| 20260505011336 | 65 | 133 | 4.0 | 10.0 | 0.02 | 0.02 | 0.02 | 66 | 1003.1 |
| 20260505010825 | 65 | 198 | 2.0 | 10.0 | 0.02 | 0.02 | 0.02 | 65 | 1003.1 |
| 20260505010330 | 65 | 204 | 2.0 | 9.0 | 0.02 | 0.02 | 0.02 | 65 | 1003.1 |
| 20260505005831 | 65 | 175 | 4.0 | 13.0 | 0.02 | 0.02 | 0.02 | 64 | 1003.2 |
| 20260505005356 | 65 | 171 | 5.0 | 15.0 | 0.02 | 0.02 | 0.02 | 63 | 1003.2 |
| 20260505004819 | 66 | 251 | 3.0 | 15.0 | 0.02 | 0.02 | 0.02 | 61 | 1003.6 |
| 20260505004324 | 68 | 229 | 7.0 | 10.0 | 0.02 | 0.02 | 0.02 | 56 | 1003.6 |
| 20260505003815 | 70 | 255 | 4.0 | 9.0 | 0.00 | 0.00 | 0.00 | 49 | 1003.4 |
| 20260505003317 | 70 | 218 | 4.0 | 10.0 | 0.00 | 0.00 | 0.00 | 47 | 1002.8 |
| 20260505002850 | 70 | 217 | 2.0 | 10.0 | 0.00 | 0.00 | 0.00 | 47 | 1002.5 |
| 20260505002351 | 70 | 196 | 3.0 | 9.0 | 0.00 | 0.00 | 0.00 | 46 | 1002.6 |
| 20260505001824 | 70 | 207 | 5.0 | 9.0 | 0.00 | 0.00 | 0.00 | 46 | 1002.5 |
| 20260505001324 | 70 | 196 | 4.0 | 8.0 | 0.00 | 0.00 | 0.00 | 44 | 1002.5 |
| 20260505000830 | 70 | 188 | 2.0 | 8.0 | 0.00 | 0.00 | 0.00 | 44 | 1002.4 |
| 20260505000314 | 70 | 166 | 4.0 | 8.0 | 0.00 | 0.00 | 0.00 | 43 | 1002.5 |
| 20260504235824 | 71 | 186 | 3.0 | 11.0 | 0.00 | 0.00 | 0.00 | 42 | 1002.5 |
| 20260504235327 | 71 | 169 | 3.0 | 11.0 | 0.00 | 0.00 | 0.00 | 43 | 1002.7 |
| 20260504234821 | 71 | 190 | 1.0 | 9.0 | 0.00 | 0.00 | 0.00 | 43 | 1002.7 |
| 20260504234323 | 71 | 190 | 2.0 | 9.0 | 0.00 | 0.00 | 0.00 | 41 | 1002.6 |
| 20260504233820 | 71 | 125 | 2.0 | 8.0 | 0.00 | 0.00 | 0.00 | 41 | 1002.8 |
| 20260504233342 | 71 | 254 | 3.0 | 8.0 | 0.00 | 0.00 | 0.00 | 41 | 1002.9 |
| 20260504232836 | 72 | 298 | 3.0 | 12.0 | 0.00 | 0.00 | 0.00 | 39 | 1002.9 |
| 20260504232320 | 72 | 241 | 3.0 | 12.0 | 0.00 | 0.00 | 0.00 | 39 | 1002.9 |
| 20260504231852 | 72 | 214 | 4.0 | 17.0 | 0.00 | 0.00 | 0.00 | 38 | 1002.9 |
| 20260504231315 | 73 | 265 | 6.0 | 17.0 | 0.00 | 0.00 | 0.00 | 38 | 1002.9 |
| 20260504230814 | 73 | 233 | 5.0 | 13.0 | 0.00 | 0.00 | 0.00 | 37 | 1002.9 |
| 20260504230338 | 74 | 242 | 4.0 | 13.0 | 0.00 | 0.00 | 0.00 | 38 | 1003.0 |
| 20260504225850 | 74 | 254 | 4.0 | 14.0 | 0.00 | 0.00 | 0.00 | 37 | 1002.9 |
| 20260504225334 | 74 | 241 | 7.0 | 14.0 | 0.00 | 0.00 | 0.00 | 36 | 1002.9 |
| 20260504224826 | 74 | 223 | 6.0 | 13.0 | 0.00 | 0.00 | 0.00 | 38 | 1003.0 |
| 20260504224352 | 74 | 240 | 4.0 | 15.0 | 0.00 | 0.00 | 0.00 | 37 | 1003.0 |
| 20260504223824 | 74 | 222 | 5.0 | 15.0 | 0.00 | 0.00 | 0.00 | 37 | 1003.0 |
| 20260504223327 | 74 | 239 | 8.0 | 15.0 | 0.00 | 0.00 | 0.00 | 37 | 1003.1 |
| 20260504222816 | 74 | 221 | 5.0 | 12.0 | 0.00 | 0.00 | 0.00 | 36 | 1003.1 |
| 20260504222339 | 75 | 212 | 5.0 | 12.0 | 0.00 | 0.00 | 0.00 | 35 | 1003.1 |
| 20260504221829 | 75 | 203 | 3.0 | 18.0 | 0.00 | 0.00 | 0.00 | 37 | 1003.1 |
| 20260504221314 | 75 | 262 | 6.0 | 17.0 | 0.00 | 0.00 | 0.00 | 35 | 1003.1 |
| 20260504220833 | 75 | 251 | 7.0 | 16.0 | 0.00 | 0.00 | 0.00 | 33 | 1003.1 |
| 20260504220353 | 75 | 222 | 7.0 | 12.0 | 0.00 | 0.00 | 0.00 | 33 | 1003.2 |
| 20260504215824 | 75 | 250 | 3.0 | 10.0 | 0.00 | 0.00 | 0.00 | 36 | 1003.2 |
| 20260504215327 | 75 | 247 | 4.0 | 16.0 | 0.00 | 0.00 | 0.00 | 36 | 1003.2 |
| 20260504214821 | 75 | 175 | 7.0 | 16.0 | 0.00 | 0.00 | 0.00 | 34 | 1003.2 |
| 20260504214326 | 75 | 177 | 3.0 | 9.0 | 0.00 | 0.00 | 0.00 | 34 | 1003.1 |
| 20260504213848 | 75 | 200 | 3.0 | 9.0 | 0.00 | 0.00 | 0.00 | 32 | 1003.0 |
| 20260504213332 | 75 | 171 | 4.0 | 17.0 | 0.00 | 0.00 | 0.00 | 31 | 1003.1 |